^^
Station Historical Data
 
Daily Summary for September 20, 2018 Units:  Metric    English   Both
Next Day »
Daily Weekly Monthly Yearly Custom
  Current: High: Low: Average:
Temperature: 16.4 °C 16.4 °C 9.7 °C 12.1 °C
Dew Point: 11.2 °C 11.4 °C 8.1 °C 9.7 °C
Humidity: 71% 93% 71% 85%
Wind Speed: 1.4km/h 8.4km/h 0.0km/h 2.9km/h
Wind Gust: 0.0km/h 18.5km/h - -
WindENE - - ESE
Pressure: 1023.0 hPa 1024.3 hPa 1020.1 hPa -
Precipitation: 0.0 mm      
Historical Graphs
 
 
These are the results of the file assigned to $inboxfile in your configuration

Weather Camera

Quebec Radar

This and the area below are optional for those who wish to use them.



This begins the code in the file assigned to $outboxfile in your configuration
 height=
Find more about Weather in Pointe-Claire, CA
Click for weather forecast
Tabular Data for September 20, 2018
Time Temperature Dew Point Pressure Wind Wind Speed Wind Gust Humidity Rainfall Rate (Hourly) solar Conditions
00:04 14.1 °C 10.1 °C 1020.1 hPa ENE 6.3 km/h 5.6 km/h 77% 0.0 mm 0.00 W/m2 BKN
00:09 13.9 °C 9.9 °C 1020.1 hPa NE 7.1 km/h 11.3 km/h 77% 0.0 mm 0.00 W/m2 BKN
00:14 13.8 °C 10.1 °C 1020.2 hPa ENE 4.3 km/h 5.6 km/h 78% 0.0 mm 0.00 W/m2 BKN
00:19 13.7 °C 9.9 °C 1020.3 hPa ENE 2.7 km/h 5.6 km/h 78% 0.0 mm 0.00 W/m2 FEW
00:24 13.7 °C 10.1 °C 1020.3 hPa ENE 6.0 km/h 6.4 km/h 79% 0.0 mm 0.00 W/m2 FEW
00:29 13.6 °C 10.2 °C 1020.3 hPa ENE 1.8 km/h 5.6 km/h 80% 0.0 mm 0.00 W/m2 FEW
00:34 13.4 °C 10.1 °C 1020.3 hPa ENE 3.1 km/h 5.6 km/h 80% 0.0 mm 0.00 W/m2 FEW
00:39 13.3 °C 9.9 °C 1020.3 hPa ENE 5.3 km/h 7.4 km/h 80% 0.0 mm 0.00 W/m2 FEW
00:44 13.2 °C 9.8 °C 1020.3 hPa ENE 2.1 km/h 5.6 km/h 80% 0.0 mm 0.00 W/m2 FEW
00:49 13.2 °C 9.8 °C 1020.3 hPa ENE 2.4 km/h 3.7 km/h 80% 0.0 mm 0.00 W/m2 FEW
00:54 13.1 °C 9.7 °C 1020.5 hPa ENE 0.3 km/h 5.6 km/h 80% 0.0 mm 0.00 W/m2 FEW
00:59 12.9 °C 9.8 °C 1020.6 hPa ENE 2.3 km/h 5.6 km/h 81% 0.0 mm 0.00 W/m2 FEW
01:04 12.9 °C 9.7 °C 1020.7 hPa ENE 3.4 km/h 7.4 km/h 81% 0.0 mm 0.00 W/m2 FEW
01:09 12.8 °C 9.7 °C 1020.7 hPa ENE 1.8 km/h 5.6 km/h 81% 0.0 mm 0.00 W/m2 FEW
01:14 12.8 °C 9.6 °C 1020.7 hPa Calm     81% 0.0 mm 0.00 W/m2 FEW
01:19 12.7 °C 9.6 °C 1020.7 hPa Calm     81% 0.0 mm 0.00 W/m2 FEW
01:24 12.7 °C 9.5 °C 1020.6 hPa ENE 2.1 km/h 3.2 km/h 81% 0.0 mm 0.00 W/m2 FEW
01:29 12.6 °C 9.6 °C 1020.5 hPa ENE 3.1 km/h 4.8 km/h 82% 0.0 mm 0.00 W/m2 FEW
01:34 12.5 °C 9.5 °C 1020.7 hPa ENE 1.0 km/h 3.2 km/h 82% 0.0 mm 0.00 W/m2 FEW
01:39 12.4 °C 9.4 °C 1020.7 hPa Calm     82% 0.0 mm 0.00 W/m2 FEW
01:44 12.4 °C 9.6 °C 1020.6 hPa Calm     83% 0.0 mm 0.00 W/m2 FEW
01:49 12.3 °C 9.5 °C 1020.5 hPa NNE 1.1 km/h 4.8 km/h 83% 0.0 mm 0.00 W/m2 FEW
01:54 12.3 °C 9.5 °C 1020.6 hPa North 1.1 km/h 3.7 km/h 83% 0.0 mm 0.00 W/m2 FEW
01:59 12.2 °C 9.4 °C 1020.7 hPa Calm   1.9 km/h 83% 0.0 mm 0.00 W/m2 FEW
02:04 12.1 °C 9.3 °C 1020.7 hPa Calm   3.7 km/h 83% 0.0 mm 0.00 W/m2 FEW
02:09 12.1 °C 9.3 °C 1020.8 hPa Calm     83% 0.0 mm 0.00 W/m2 FEW
02:14 11.9 °C 9.3 °C 1020.7 hPa North 0.8 km/h 5.6 km/h 84% 0.0 mm 0.00 W/m2 FEW
02:19 11.8 °C 9.2 °C 1020.7 hPa North 1.4 km/h 3.2 km/h 84% 0.0 mm 0.00 W/m2 FEW
02:24 11.7 °C 9.1 °C 1020.7 hPa North 0.6 km/h 5.6 km/h 84% 0.0 mm 0.00 W/m2 FEW
02:29 11.6 °C 8.9 °C 1020.6 hPa North 1.3 km/h 5.6 km/h 84% 0.0 mm 0.00 W/m2 FEW
02:34 11.4 °C 8.8 °C 1020.6 hPa NE 0.6 km/h 1.9 km/h 84% 0.0 mm 0.00 W/m2 FEW
02:39 11.3 °C 8.7 °C 1020.5 hPa NE 0.2 km/h 1.9 km/h 84% 0.0 mm 0.00 W/m2 FEW
02:44 11.2 °C 8.6 °C 1020.4 hPa NE 0.6 km/h 3.7 km/h 84% 0.0 mm 0.00 W/m2 FEW
02:49 11.1 °C 8.7 °C 1020.4 hPa NE 3.5 km/h 4.8 km/h 85% 0.0 mm 0.00 W/m2 FEW
02:54 11.1 °C 8.6 °C 1020.4 hPa NE 1.3 km/h 5.6 km/h 85% 0.0 mm 0.00 W/m2 FEW
02:59 11.0 °C 8.6 °C 1020.5 hPa Calm     85% 0.0 mm 0.00 W/m2 FEW
03:04 10.9 °C 8.5 °C 1020.7 hPa NE 1.3 km/h 7.4 km/h 85% 0.0 mm 0.00 W/m2 FEW
03:09 10.8 °C 8.6 °C 1020.6 hPa NNE 1.6 km/h 5.6 km/h 86% 0.0 mm 0.00 W/m2 FEW
03:14 10.8 °C 8.6 °C 1020.6 hPa NNE 0.2 km/h 5.6 km/h 86% 0.0 mm 0.00 W/m2 FEW
03:19 10.7 °C 8.5 °C 1020.6 hPa Calm   1.9 km/h 86% 0.0 mm 0.00 W/m2 FEW
03:24 10.7 °C 8.4 °C 1020.6 hPa Calm     86% 0.0 mm 0.00 W/m2 FEW
03:29 10.6 °C 8.4 °C 1020.5 hPa NNE 1.3 km/h 7.4 km/h 86% 0.0 mm 0.00 W/m2 FEW
03:34 10.6 °C 8.5 °C 1020.4 hPa NNE 0.2 km/h   87% 0.0 mm 0.00 W/m2 FEW
03:39 10.5 °C 8.4 °C 1020.4 hPa NNE 0.3 km/h 3.7 km/h 87% 0.0 mm 0.00 W/m2 FEW
03:44 10.4 °C 8.4 °C 1020.3 hPa North 0.8 km/h 5.6 km/h 87% 0.0 mm 0.00 W/m2 FEW
03:49 10.4 °C 8.4 °C 1020.3 hPa NNE 1.4 km/h 5.6 km/h 87% 0.0 mm 0.00 W/m2 FEW
03:54 10.4 °C 8.5 °C 1020.3 hPa NE 1.1 km/h 5.6 km/h 88% 0.0 mm 0.00 W/m2 FEW
03:59 10.3 °C 8.4 °C 1020.5 hPa Calm   1.9 km/h 88% 0.0 mm 0.00 W/m2 FEW
04:04 10.3 °C 8.4 °C 1020.6 hPa Calm   3.7 km/h 88% 0.0 mm 0.00 W/m2 FEW
04:09 10.3 °C 8.4 °C 1020.5 hPa North 1.6 km/h 5.6 km/h 88% 0.0 mm 0.00 W/m2 FEW
04:14 10.3 °C 8.4 °C 1020.8 hPa NNW 1.4 km/h 8.0 km/h 88% 0.0 mm 0.00 W/m2 FEW
04:19 10.3 °C 8.4 °C 1020.8 hPa Calm     88% 0.0 mm 0.00 W/m2 FEW
04:24 10.2 °C 8.5 °C 1020.8 hPa NNW 4.5 km/h 5.6 km/h 89% 0.0 mm 0.00 W/m2 FEW
04:29 10.1 °C 8.2 °C 1020.7 hPa North 6.0 km/h 8.0 km/h 88% 0.0 mm 0.00 W/m2 FEW
04:34 10.0 °C 8.3 °C 1020.8 hPa North 5.5 km/h 13.0 km/h 89% 0.0 mm 0.00 W/m2 FEW
04:39 9.9 °C 8.2 °C 1020.9 hPa North 3.7 km/h 6.4 km/h 89% 0.0 mm 0.00 W/m2 FEW
04:44 9.8 °C 8.1 °C 1020.9 hPa North 2.7 km/h 5.6 km/h 89% 0.0 mm 0.00 W/m2 FEW
04:49 9.8 °C 8.1 °C 1021.0 hPa North 1.9 km/h 5.6 km/h 89% 0.0 mm 0.00 W/m2 FEW
04:54 9.8 °C 8.3 °C 1020.9 hPa North 6.1 km/h 7.4 km/h 90% 0.0 mm 0.00 W/m2 FEW
04:59 9.8 °C 8.3 °C 1020.9 hPa North 5.0 km/h 9.3 km/h 90% 0.0 mm 0.00 W/m2 FEW
05:04 9.8 °C 8.4 °C 1020.8 hPa North 5.5 km/h 13.0 km/h 91% 0.0 mm 0.00 W/m2 FEW
05:09 9.8 °C 8.4 °C 1020.9 hPa North 6.4 km/h 8.0 km/h 91% 0.0 mm 0.00 W/m2 FEW
05:14 9.8 °C 8.6 °C 1021.0 hPa North 5.1 km/h 5.6 km/h 92% 0.0 mm 0.00 W/m2 FEW
05:19 9.8 °C 8.6 °C 1021.6 hPa North 5.6 km/h 13.0 km/h 92% 0.0 mm 0.00 W/m2 BKN
05:24 9.8 °C 8.6 °C 1021.9 hPa North 5.5 km/h 16.7 km/h 92% 0.0 mm 0.00 W/m2 BKN
05:29 9.7 °C 8.5 °C 1022.2 hPa North 6.3 km/h 14.8 km/h 92% 0.0 mm 0.00 W/m2 BKN
05:34 9.7 °C 8.4 °C 1022.1 hPa NNW 8.0 km/h 18.5 km/h 92% 0.0 mm 0.00 W/m2 BKN
05:39 9.7 °C 8.4 °C 1021.8 hPa ENE 5.3 km/h 11.1 km/h 92% 0.0 mm 0.00 W/m2 BKN
05:44 9.7 °C 8.7 °C 1021.8 hPa ENE 6.6 km/h 14.8 km/h 93% 0.0 mm 0.00 W/m2 BKN
05:49 9.7 °C 8.7 °C 1021.9 hPa NNE 7.2 km/h 13.0 km/h 93% 0.0 mm 0.00 W/m2 BKN
05:54 9.8 °C 8.7 °C 1022.3 hPa North 4.0 km/h 7.4 km/h 93% 0.0 mm 0.00 W/m2 BKN
05:59 9.8 °C 8.7 °C 1022.3 hPa North 5.1 km/h 6.4 km/h 93% 0.0 mm 0.00 W/m2 BKN
06:04 9.8 °C 8.7 °C 1022.2 hPa North 4.0 km/h 5.6 km/h 93% 0.0 mm 0.00 W/m2 OVC
06:09 9.8 °C 8.8 °C 1022.0 hPa NE 5.0 km/h 9.3 km/h 93% 0.0 mm 0.00 W/m2 OVC
06:14 9.8 °C 8.7 °C 1022.1 hPa NE 5.3 km/h 6.4 km/h 93% 0.0 mm 0.00 W/m2 OVC
06:19 9.8 °C 8.7 °C 1022.1 hPa NNE 8.4 km/h 9.3 km/h 93% 0.0 mm 0.00 W/m2 OVC
06:24 9.8 °C 8.7 °C 1022.2 hPa NE 5.1 km/h 7.4 km/h 93% 0.0 mm 0.00 W/m2 OVC
06:29 9.8 °C 8.8 °C 1022.5 hPa North 4.3 km/h 9.3 km/h 93% 0.0 mm 0.00 W/m2 OVC
06:34 9.9 °C 8.8 °C 1023.0 hPa NNE 5.5 km/h 9.3 km/h 93% 0.0 mm 0.00 W/m2 OVC
06:39 9.9 °C 8.8 °C 1023.2 hPa NW 5.3 km/h 7.4 km/h 93% 0.0 mm 0.00 W/m2 OVC
06:44 9.9 °C 8.8 °C 1023.1 hPa NE 5.1 km/h 9.3 km/h 93% 0.0 mm 5.00 W/m2 OVC
06:49 9.9 °C 8.9 °C 1023.0 hPa North 2.1 km/h 5.6 km/h 93% 0.0 mm 0.00 W/m2 OVC
06:54 9.9 °C 8.9 °C 1023.1 hPa NNE 4.8 km/h 5.6 km/h 93% 0.0 mm 5.00 W/m2 OVC
06:59 9.9 °C 8.9 °C 1023.0 hPa ENE 5.3 km/h 7.4 km/h 93% 0.0 mm 9.00 W/m2 OVC
07:04 10.0 °C 8.9 °C 1023.0 hPa NNE 3.4 km/h 6.4 km/h 93% 0.0 mm 7.00 W/m2 OVC
07:09 10.1 °C 9.0 °C 1023.0 hPa North 3.7 km/h 5.6 km/h 93% 0.0 mm 12.00 W/m2 OVC
07:14 10.1 °C 9.0 °C 1023.1 hPa NNE 3.1 km/h 5.6 km/h 93% 0.0 mm 14.00 W/m2 OVC
07:19 10.1 °C 9.0 °C 1023.0 hPa NNE 5.1 km/h 9.3 km/h 93% 0.0 mm 18.00 W/m2 OVC
07:24 10.1 °C 9.1 °C 1023.1 hPa North 6.4 km/h 9.3 km/h 93% 0.0 mm 14.00 W/m2 OVC
07:29 10.2 °C 9.1 °C 1023.5 hPa North 5.0 km/h 11.1 km/h 93% 0.0 mm 16.00 W/m2 OVC
07:34 10.2 °C 9.1 °C 1023.7 hPa NNW 2.1 km/h 4.8 km/h 93% 0.0 mm 18.00 W/m2 OVC
07:39 10.2 °C 9.2 °C 1023.6 hPa North 4.8 km/h 7.4 km/h 93% 0.0 mm 21.00 W/m2 OVC
07:44 10.2 °C 9.2 °C 1023.8 hPa North 3.4 km/h 13.0 km/h 93% 0.0 mm 19.00 W/m2 OVC
07:49 10.3 °C 9.2 °C 1023.8 hPa NNE 4.3 km/h 9.3 km/h 93% 0.0 mm 28.00 W/m2 OVC
07:54 10.3 °C 9.2 °C 1023.7 hPa ENE 5.1 km/h 9.3 km/h 93% 0.0 mm 33.00 W/m2 OVC
07:59 10.3 °C 9.1 °C 1023.9 hPa ENE 3.9 km/h 8.0 km/h 92% 0.0 mm 33.00 W/m2 OVC
08:04 10.3 °C 9.1 °C 1024.1 hPa NNE 2.3 km/h 5.6 km/h 92% 0.0 mm 47.00 W/m2 OVC
08:09 10.4 °C 9.2 °C 1024.1 hPa North 2.6 km/h 7.4 km/h 92% 0.0 mm 51.00 W/m2 OVC
08:14 10.4 °C 9.2 °C 1024.0 hPa NNW 3.9 km/h 7.4 km/h 92% 0.0 mm 39.00 W/m2 OVC
08:19 10.4 °C 9.2 °C 1023.6 hPa North 5.5 km/h 5.6 km/h 92% 0.0 mm 35.00 W/m2 OVC
08:24 10.4 °C 9.2 °C 1023.8 hPa NE 4.8 km/h 6.4 km/h 92% 0.0 mm 53.00 W/m2 OVC
08:29 10.5 °C 9.3 °C 1023.8 hPa ENE 2.9 km/h 5.6 km/h 92% 0.0 mm 56.00 W/m2 OVC
08:34 10.6 °C 9.3 °C 1023.6 hPa ENE 4.8 km/h 13.0 km/h 92% 0.0 mm 79.00 W/m2 OVC
08:39 10.6 °C 9.2 °C 1024.3 hPa NNE 1.1 km/h 5.6 km/h 91% 0.0 mm 76.00 W/m2 OVC
08:44 10.7 °C 9.3 °C 1024.1 hPa ENE 5.1 km/h 5.6 km/h 91% 0.0 mm 116.00 W/m2 OVC
08:49 10.7 °C 9.3 °C 1024.1 hPa ENE 6.6 km/h 14.8 km/h 91% 0.0 mm 69.00 W/m2 OVC
08:54 10.7 °C 9.3 °C 1024.0 hPa NNE 3.1 km/h 5.6 km/h 91% 0.0 mm 58.00 W/m2 OVC
08:59 10.7 °C 9.3 °C 1024.0 hPa North 3.7 km/h 9.3 km/h 91% 0.0 mm 69.00 W/m2 OVC
09:04 10.8 °C 9.2 °C 1023.6 hPa ENE 2.1 km/h 4.8 km/h 90% 0.0 mm 95.00 W/m2 OVC
09:09 10.8 °C 9.3 °C 1023.6 hPa East 4.3 km/h 11.1 km/h 90% 0.0 mm 81.00 W/m2 OVC
09:14 10.9 °C 9.3 °C 1023.7 hPa Calm     90% 0.0 mm 62.00 W/m2 OVC
09:19 11.0 °C 9.6 °C 1023.6 hPa ENE 7.4 km/h 5.6 km/h 91% 0.0 mm 56.00 W/m2 OVC
09:24 11.0 °C 9.4 °C 1023.5 hPa ENE 5.3 km/h 9.3 km/h 90% 0.0 mm 58.00 W/m2 OVC
09:29 11.1 °C 9.5 °C 1023.6 hPa ENE 4.5 km/h 7.4 km/h 90% 0.0 mm 62.00 W/m2 OVC
09:34 11.1 °C 9.5 °C 1023.4 hPa ENE 7.7 km/h 13.0 km/h 90% 0.0 mm 70.00 W/m2 OVC
09:39 11.1 °C 9.6 °C 1023.6 hPa East 2.4 km/h 14.8 km/h 90% 0.0 mm 79.00 W/m2 OVC
09:44 11.2 °C 9.6 °C 1023.6 hPa NE 8.2 km/h 8.0 km/h 90% 0.0 mm 105.00 W/m2 OVC
09:49 11.3 °C 9.7 °C 1023.6 hPa ENE 3.5 km/h 7.4 km/h 90% 0.0 mm 125.00 W/m2 OVC
09:54 11.4 °C 9.8 °C 1023.6 hPa ENE 2.6 km/h 5.6 km/h 90% 0.0 mm 148.00 W/m2 OVC
09:59 11.5 °C 9.9 °C 1023.9 hPa ENE 2.1 km/h 5.6 km/h 90% 0.0 mm 109.00 W/m2 OVC
10:04 11.6 °C 9.9 °C 1023.8 hPa ENE 4.0 km/h 5.6 km/h 90% 0.0 mm 105.00 W/m2 OVC
10:09 11.6 °C 9.8 °C 1023.6 hPa ENE 3.4 km/h 5.6 km/h 89% 0.0 mm 97.00 W/m2 OVC
10:14 11.7 °C 9.9 °C 1023.4 hPa Calm     89% 0.0 mm 90.00 W/m2 OVC
10:19 11.8 °C 10.0 °C 1023.2 hPa ENE 5.1 km/h 7.4 km/h 89% 0.0 mm 114.00 W/m2 OVC
10:24 11.8 °C 10.1 °C 1023.1 hPa ENE 3.5 km/h 5.6 km/h 89% 0.0 mm 125.00 W/m2 OVC
10:29 11.9 °C 10.0 °C 1023.1 hPa ENE 4.3 km/h 7.4 km/h 88% 0.0 mm 134.00 W/m2 OVC
10:34 12.1 °C 10.1 °C 1023.1 hPa ENE 6.9 km/h 9.7 km/h 88% 0.0 mm 123.00 W/m2 OVC
10:39 12.2 °C 10.2 °C 1023.2 hPa NE 4.7 km/h 13.0 km/h 88% 0.0 mm 127.00 W/m2 OVC
10:44 12.3 °C 10.2 °C 1023.5 hPa NE 4.8 km/h 7.4 km/h 87% 0.0 mm 148.00 W/m2 OVC
10:49 12.4 °C 10.3 °C 1023.5 hPa North 2.9 km/h 7.4 km/h 87% 0.0 mm 153.00 W/m2 OVC
10:54 12.6 °C 10.4 °C 1023.2 hPa NE 4.7 km/h 5.6 km/h 87% 0.0 mm 359.00 W/m2 OVC
10:59 12.8 °C 10.7 °C 1023.1 hPa ENE 3.2 km/h 7.4 km/h 87% 0.0 mm 327.00 W/m2 OVC
11:04 13.0 °C 10.7 °C 1023.2 hPa NE 4.2 km/h 9.3 km/h 86% 0.0 mm 188.00 W/m2 OVC
11:09 13.2 °C 10.7 °C 1023.6 hPa NE 1.9 km/h 5.6 km/h 85% 0.0 mm 160.00 W/m2 OVC
11:14 13.2 °C 10.7 °C 1023.7 hPa North 3.9 km/h 5.6 km/h 85% 0.0 mm 292.00 W/m2 OVC
11:19 13.3 °C 10.8 °C 1023.7 hPa North 0.5 km/h 3.7 km/h 85% 0.0 mm 341.00 W/m2 OVC
11:24 13.5 °C 11.0 °C 1023.6 hPa Calm     85% 0.0 mm 271.00 W/m2 OVC
11:29 13.6 °C 10.8 °C 1023.5 hPa East 0.2 km/h 5.6 km/h 83% 0.0 mm 193.00 W/m2 OVC
11:34 13.7 °C 10.8 °C 1023.3 hPa ENE 1.9 km/h 3.7 km/h 83% 0.0 mm 181.00 W/m2 OVC
11:39 13.8 °C 10.9 °C 1023.6 hPa Calm     83% 0.0 mm 160.00 W/m2 OVC
11:44 13.8 °C 11.0 °C 1023.6 hPa ENE 0.6 km/h 3.7 km/h 83% 0.0 mm 190.00 W/m2 OVC
11:49 13.9 °C 11.1 °C 1024.0 hPa Calm     83% 0.0 mm 134.00 W/m2 OVC
11:54 13.9 °C 10.9 °C 1023.8 hPa North 3.5 km/h 5.6 km/h 82% 0.0 mm 149.00 W/m2 OVC
11:59 13.9 °C 10.9 °C 1023.9 hPa Calm   5.6 km/h 82% 0.0 mm 146.00 W/m2 OVC
12:04 13.9 °C 10.9 °C 1023.9 hPa North 0.3 km/h 3.7 km/h 82% 0.0 mm 135.00 W/m2 OVC
12:09 13.9 °C 10.7 °C 1023.8 hPa Calm   5.6 km/h 81% 0.0 mm 185.00 W/m2 OVC
12:14 13.9 °C 10.7 °C 1024.0 hPa North 1.9 km/h 6.4 km/h 81% 0.0 mm 127.00 W/m2 OVC
12:19 14.0 °C 10.8 °C 1024.0 hPa North 5.3 km/h 13.0 km/h 81% 0.0 mm 100.00 W/m2 OVC
12:24 13.9 °C 10.7 °C 1023.8 hPa NNE 4.0 km/h 7.4 km/h 81% 0.0 mm 123.00 W/m2 OVC
12:29 14.0 °C 10.8 °C 1023.8 hPa ENE 4.8 km/h 9.7 km/h 81% 0.0 mm 142.00 W/m2 OVC
12:34 13.9 °C 10.7 °C 1023.7 hPa NNW 6.0 km/h 7.4 km/h 81% 0.0 mm 146.00 W/m2 OVC
12:39 13.9 °C 10.7 °C 1023.6 hPa NNW 1.0 km/h 5.6 km/h 81% 0.0 mm 192.00 W/m2 OVC
12:44 13.9 °C 10.7 °C 1023.7 hPa NNW 1.1 km/h 5.6 km/h 81% 0.0 mm 251.00 W/m2 OVC
12:49 14.0 °C 11.0 °C 1023.7 hPa NNW 0.2 km/h   82% 0.0 mm 204.00 W/m2 OVC
12:54 14.1 °C 10.8 °C 1023.6 hPa NNE 2.1 km/h 7.4 km/h 81% 0.0 mm 285.00 W/m2 OVC
12:59 14.2 °C 10.9 °C 1023.5 hPa NE 1.3 km/h 9.3 km/h 81% 0.0 mm 357.00 W/m2 OVC
13:04 14.2 °C 10.8 °C 1023.4 hPa ENE 6.6 km/h 7.4 km/h 80% 0.0 mm 294.00 W/m2 OVC
13:09 14.3 °C 10.9 °C 1023.4 hPa Calm     80% 0.0 mm 373.00 W/m2 OVC
13:14 14.4 °C 11.0 °C 1023.4 hPa ENE 1.4 km/h 5.6 km/h 80% 0.0 mm 267.00 W/m2 OVC
13:19 14.4 °C 10.7 °C 1023.3 hPa NNE 3.1 km/h 5.6 km/h 78% 0.0 mm 227.00 W/m2 OVC
13:24 14.6 °C 11.0 °C 1023.3 hPa NE 3.2 km/h 5.6 km/h 79% 0.0 mm 279.00 W/m2 OVC
13:29 14.7 °C 10.9 °C 1023.1 hPa NE 1.6 km/h 3.7 km/h 78% 0.0 mm 415.00 W/m2 OVC
13:34 14.8 °C 11.0 °C 1023.2 hPa North 1.6 km/h 13.0 km/h 78% 0.0 mm 348.00 W/m2 OVC
13:39 14.9 °C 10.9 °C 1023.4 hPa NNE 3.5 km/h 8.0 km/h 77% 0.0 mm 404.00 W/m2 OVC
13:44 14.9 °C 10.7 °C 1023.4 hPa NNW 3.7 km/h 7.4 km/h 76% 0.0 mm 392.00 W/m2 OVC
13:49 15.1 °C 11.1 °C 1023.4 hPa NNW 4.0 km/h 6.4 km/h 77% 0.0 mm 339.00 W/m2 OVC
13:54 15.2 °C 11.2 °C 1023.4 hPa North 1.3 km/h 5.6 km/h 77% 0.0 mm 364.00 W/m2 OVC
13:59 15.3 °C 11.3 °C 1023.5 hPa Calm     77% 0.0 mm 454.00 W/m2 OVC
14:04 15.6 °C 11.2 °C 1023.5 hPa NE 1.9 km/h 7.4 km/h 75% 0.0 mm 450.00 W/m2 OVC
14:09 15.7 °C 11.3 °C 1023.5 hPa Calm   5.6 km/h 75% 0.0 mm 350.00 W/m2 OVC
14:14 15.8 °C 11.4 °C 1023.5 hPa NE 0.6 km/h 5.6 km/h 75% 0.0 mm 237.00 W/m2 OVC
14:19 15.8 °C 11.0 °C 1023.6 hPa NNE 2.9 km/h 7.4 km/h 73% 0.0 mm 297.00 W/m2 OVC
14:24 15.9 °C 11.3 °C 1023.5 hPa NE 1.3 km/h 5.6 km/h 74% 0.0 mm 415.00 W/m2 OVC
14:29 16.0 °C 11.2 °C 1023.5 hPa North 2.3 km/h 5.6 km/h 73% 0.0 mm 267.00 W/m2 OVC
14:34 16.0 °C 11.2 °C 1023.5 hPa North 0.6 km/h 9.3 km/h 73% 0.0 mm 313.00 W/m2 OVC
14:39 16.0 °C 11.2 °C 1023.4 hPa NNE 2.4 km/h 5.6 km/h 73% 0.0 mm 255.00 W/m2 OVC
14:44 16.1 °C 11.2 °C 1023.4 hPa North 1.1 km/h 5.6 km/h 73% 0.0 mm 236.00 W/m2 OVC
14:49 16.0 °C 11.2 °C 1023.5 hPa NNE 2.4 km/h 5.6 km/h 73% 0.0 mm 241.00 W/m2 OVC
14:54 16.1 °C 11.2 °C 1023.5 hPa NNE 1.6 km/h 1.6 km/h 73% 0.0 mm 236.00 W/m2 OVC
14:59 16.0 °C 10.9 °C 1023.3 hPa Calm   3.7 km/h 72% 0.0 mm 229.00 W/m2 OVC
15:04 16.1 °C 11.2 °C 1023.1 hPa NNE 0.6 km/h 5.6 km/h 73% 0.0 mm 264.00 W/m2 OVC
15:09 16.2 °C 11.1 °C 1023.1 hPa ENE 1.6 km/h 5.6 km/h 72% 0.0 mm 322.00 W/m2 OVC
15:14 16.3 °C 11.4 °C 1023.0 hPa ENE 0.5 km/h 1.9 km/h 73% 0.0 mm 330.00 W/m2 OVC
15:19 16.3 °C 11.3 °C 1023.1 hPa Calm     72% 0.0 mm 476.00 W/m2 OVC
15:24 16.4 °C 11.2 °C 1023.0 hPa ENE 1.4 km/h   71% 0.0 mm 308.00 W/m2 OVC
Pointe-Claire Weather